Notices

What's New in latest Release from April 7th, 2021:

- Updated Glossary, including Speed of Maximum Gust, and Total Hourly Precipitation

- Updated national and regional climate services offices contacts and prices information

- Addition of station inventory lists for 1981-2010, 1971-2000, and 1961-1990 Normals.

If you haven't already, please take our survey and provide feedback about our website: https://eccc.sondage-survey.ca/f/LanguageSelection.aspx?s=442ca660-fcf1-47c0-95a9-59707d6fd709

Hourly Data Report for March 17, 2010

HALIFAX STANFIELD INT'L A
NOVA SCOTIA

44°52'48.060" N
63°30'00.050" W
145.40 m
8202250
71395
YHZ

Download Data

Hourly Data (March 2010)
Hourly Data Report for March 17, 2010
TIME
LST
Temp Definition
°C
Dew Point Definition
°C
Rel Hum Definition
%
Precip. Amount Definition
mm

Wind Dir Definition
10's deg

Wind Spd Definition
km/h
Visibility Definition
km
Stn Press Definition
kPa
Hmdx Definition


Wind Chill Definition


Weather Definition


00:00 -2.1 -4.7 82   21 13 24.1 99.33   -7 Clear
01:00 -2.7 -5.1 84   24 9 24.1 99.30   -6 Clear
02:00 -2.2 -5.3 79   25 7 24.1 99.26   -5 Clear
03:00 -0.7 -6.4 65   29 15 24.1 99.24   -5 Clear
04:00 -0.3 -6.9 61   29 15 24.1 99.20   -5 Clear
05:00 -0.5 -6.8 62   31 11 24.1 99.20   -4 Clear
06:00 0.8 -6.9 56   33 15 24.1 99.22     Clear
07:00 1.6 -6.5 55   33 17 24.1 99.27     Clear
08:00 2.7 -5.8 53   32 9 24.1 99.32     Clear
09:00 5.5 -5.8 44   33 11 24.1 99.33     Clear
10:00 7.7 -7.5 33   34 11 24.1 99.32     Clear
11:00 9.2 -8.6 27   27 4 24.1 99.26     Clear
12:00 11.8 -9.4 22   31 6 24.1 99.18     Clear
13:00 13.2 -12.0 16   29 22 24.1 99.09     Clear
14:00 14.1 -12.6 14   29 17 24.1 98.97     Mainly Clear
15:00 14.4 -13.3 13   29 17 24.1 98.90     Mostly Cloudy
16:00 12.4 -9.0 22   21 35 24.1 98.85     Mostly Cloudy
17:00 9.1 -9.5 26   21 30 24.1 98.83     Mostly Cloudy
18:00 6.2 -8.5 34   19 19 24.1 98.80     Mostly Cloudy
19:00 2.6 -7.0 49   22 17 24.1 98.77     Mainly Clear
20:00 1.7 -5.9 57   24 11 24.1 98.73     Clear
21:00 3.8 -6.1 48   24 20 24.1 98.72     Mainly Clear
22:00 3.8 -6.7 46   25 22 24.1 98.65     Mainly Clear
23:00 3.6 -7.3 45   24 19 24.1 98.60     Mainly Clear

Notes on Data Quality.

Legend

  • E = Estimated
  • M = Missing
  • NA = Not Available*
  • [empty] = Indicates an unobserved value
Date modified: